Flag for U.S.A. Weather past 2 weeks in Pasadena, California, U.S.A.

Now
62 °F

Clear.


Feels Like: 62 °F
Forecast: 62 / 88 °F
Wind: No wind

Location: Burbank-Glendale-Pasadena Airport

Current Time: Oct 23, 2014 at 9:15:57 AM

Latest Report: Oct 23, 2014 at 7:53 AM


Visibility: 10 mi

Pressure: 29.94 "Hg

Humidity: 54%

Dew point: 45 °F

Location of PasadenaLocation

Historic Weather in Pasadena — Graph

°F

Pasadena temperature yesterday

Maximum temperature yesterday: 88 °F (at 2:53 PM)
Minimum temperature yesterday: 58 °F (at 5:53 AM)
Average temperature yesterday: 70 °F

Past Weeks' High & Low Weather Summary

 TemperatureHumidityPressure
High88 °F (Oct 22, 2:53 PM)97% (Oct 13, 7:53 AM)30.00 "Hg (Oct 13, 7:53 AM)
Low56 °F (Oct 18, 6:53 AM)16% (Oct 22, 2:53 PM)29.75 "Hg (Oct 8, 3:53 PM)
Average68 °F66%29.89 "Hg
* Reported Oct 8 7:53 AM — Oct 23 7:53 AM, Pasadena, Weather by CustomWeather, © 2014

Note: Actual official high and low records may vary slightly from our data, if they occured in-between our weather recording intervals... More about our weather records

Advertising

Pasadena weather history for previous 24 hours

 ConditionsComfort  
Time TempWeatherWind HumidityBarometerVisibility
7:53 AM
Oct 23
62 °FClear.No wind54%29.94 "Hg10 mi
6:53 AM58 °FClear.No wind62%29.93 "Hg10 mi
5:53 AM58 °FClear.No wind62%29.92 "Hg10 mi
4:53 AM60 °FClear.No wind58%29.91 "Hg10 mi
3:53 AM60 °FClear.No wind60%29.90 "Hg10 mi
2:53 AM62 °FClear.No wind56%29.92 "Hg10 mi
1:53 AM63 °FClear.No wind56%29.93 "Hg10 mi
12:53 AM64 °FClear.No wind56%29.93 "Hg10 mi
11:53 PM
Oct 22
65 °FClear.No wind56%29.93 "Hg10 mi
10:53 PM67 °FClear.No wind53%29.93 "Hg10 mi
9:53 PM68 °FClear.No wind63%29.93 "Hg10 mi
8:53 PM71 °FClear.No wind57%29.92 "Hg10 mi
7:53 PM73 °FClear.5 mph51%29.90 "Hg10 mi
6:53 PM75 °FSunny.5 mph45%29.88 "Hg10 mi
5:53 PM77 °FSunny.6 mph39%29.86 "Hg10 mi
4:53 PM82 °FSunny.7 mph31%29.85 "Hg10 mi
3:53 PM84 °FSunny.8 mph33%29.85 "Hg10 mi
2:53 PM88 °FSunny.5 mph16%29.85 "Hg10 mi
1:53 PM85 °FSunny.No wind26%29.86 "Hg10 mi
12:53 PM83 °FSunny.No wind27%29.88 "Hg10 mi
11:53 AM79 °FSunny.5 mph28%29.90 "Hg10 mi
10:53 AM74 °FSunny.No wind35%29.92 "Hg10 mi
9:53 AM68 °FSunny.3 mph45%29.93 "Hg10 mi
Weather by CustomWeather, © 2014

See weather overviewHow to use our weather pages